Weather Roundup
Issued by NWS Springfield, MO

Home | Current Version | Previous Version | Text Only | Print | Product List | Glossary On
Versions: 1 2 3 4 5 6 7 8 9 10 11 12 13 14 15 16 17 18 19 20 21 22 23 24 25 26 27 28 29 30 31 32 33 34 35 36 37 38 39 40 41 42 43 44 45 46 47 48 49 50
000
NZUS99 KSGF 281507
HRRSGF

HOURLY WEATHER
NATIONAL WEATHER SERVICE SPRINGFIELD MO
900 AM CST FRI NOV 28 2014

......SGF CWA......

CITY           SKY/WX    TMP DP  RH WIND       PRES   REMARKS
SPRINGFIELD    SUNNY     41  27  57 S20G31    30.10F
JOPLIN         SUNNY     47  28  47 S21G31    30.08F
WEST PLAINS    SUNNY     36  28  73 S8        30.24R WCI  30
ROLLA          SUNNY     38  27  64 S18       30.11F WCI  28
OSAGE BEACH    SUNNY     39  27  60 S13       30.11S WCI  32
BRANSON        SUNNY     41  28  60 S8        30.17F

......SURROUNDING SGF CWA......

CITY           SKY/WX    TMP DP  RH WIND       PRES   REMARKS
CHANUTE        SUNNY     42  29  59 S18G26    30.04S
PARSONS        SUNNY     44  29  55 S13G21    30.07S
COFFEYVILLE    SUNNY     43  29  57 S20G26    30.07S
EMPORIA        SUNNY     37  26  64 S16       29.96F WCI  28
GROVE OK       SUNNY     50  30  46 S20       30.13F
ROGERS AR      SUNNY     47  28  47 S20G29    30.16S
SILOAM SPRINGS   N/A     46  27  46 S15G21    30.17S
HARRISON AR    SUNNY     41  29  62 S17G24    30.19F
NEAR YELLVILLE SUNNY     41  28  60 S8        30.23F

......KANSAS AND MISSOURI......

CITY           SKY/WX    TMP DP  RH WIND       PRES   REMARKS
KANSAS CTY INT MOSUNNY   40  27  59 SW18G25   29.97F WCI  31
DOWNTOWN KC    SUNNY     43  27  53 SW13      29.99F
COLUMBIA       SUNNY     37  27  67 S14       30.08F WCI  28
SEDALIA        SUNNY     42  27  55 S18G25    30.05S
ST JOSEPH      SUNNY     38  27  64 S9        29.97F WCI  31
ST LOUIS       MOSUNNY   33  27  78 S12       30.19F WCI  24
SPIRIT OF STL  SUNNY     35  28  75 S9        30.17F WCI  28
KIRKSVILLE     SUNNY     30  25  81 S10       30.03F WCI  21
WICHITA        MOSUNNY   43  29  57 S12       30.00S
TOPEKA         SUNNY     40  26  57 S10G18    29.97F WCI  33
OLATHE         SUNNY     39  27  62 S17G23    29.98F WCI  30

......TENNESSEE......

CITY           SKY/WX    TMP DP  RH WIND       PRES   REMARKS
MEMPHIS        SUNNY     38  26  62 S9        30.40S WCI  31
NASHVILLE      MOSUNNY   31  22  69 S7        30.44R WCI  24

......ARKANSAS.......

CITY           SKY/WX    TMP DP  RH WIND       PRES   REMARKS
FAYETTEVILLE   SUNNY     44  29  55 S14G21    30.18S
FT SMITH       SUNNY     38  31  76 E8        30.25F WCI  32
LITTLE ROCK    SUNNY     39  31  72 S6        30.37F WCI  35

......OKLAHOMA.......

CITY           SKY/WX    TMP DP  RH WIND       PRES   REMARKS
TULSA          MOSUNNY   46  29  51 S17       30.12S
PONCA CITY     SUNNY     46  29  51 S7        30.05F
MCALESTER      MOSUNNY   48  30  49 S13G22    30.21S
OKLAHOMA CITY  SUNNY     47  32  56 S15       30.08F

......IOWA............

CITY           SKY/WX    TMP DP  RH WIND       PRES   REMARKS
DES MOINES     CLOUDY    26  20  77 S12       29.95F WCI  16
QUAD CITIES    MOSUNNY   20  13  74 SE14      30.12F WCI   7

......ILLINOIS........

CITY           SKY/WX    TMP DP  RH WIND       PRES   REMARKS
QUINCY         SUNNY     28  23  81 S13       30.08F WCI  17
CHICAGO        CLOUDY    21  14  74 S14       30.24F WCI   8




USA.gov is the U.S. government's official web portal to all federal, state and local government web resources and services.